RH
12 10 10 12 13 17 19 20 22 24 24 25 27 30 26 24 25 31 36 37 40 43 41 44 43 48 50 55 65 66 64 66 75 82 84 85 78 82 78 67 65 56 67 75
13 12 10 12 15 16 18 19 16 18 19 21 24 24 26 26 23 27 34 37 35 41 41 44 46 51 49 54 62 61 63 62 65 63 68 72 66 79 74 70 67 59 56 68
14 13 12 11 13 14 14 13 15 17 17 17 25 26 28 27 24 26 28 27 34 35 39 40 45 48 48 56 60 57 63 62 53 58 59 61 61 62 71 70 70 63 57 55
17 16 13 12 12 13 12 12 11 13 12 15 18 22 27 24 22 22 26 32 31 34 34 41 47 45 48 58 58 56 65 60 53 57 55 58 58 68 76 69 69 69 61 58
20 17 15 12 11 11 11 12 14 13 12 14 14 21 23 23 24 23 30 32 29 28 31 37 43 43 53 58 51 55 65 62 57 57 60 61 54 61 68 71 68 67 73 75
22 18 16 15 12 10 10 12 12 13 13 16 16 18 20 25 21 29 25 31 33 25 27 32 43 45 55 55 50 57 63 59 60 57 62 58 45 53 66 70 66 71 76 84
19 20 17 15 13 11 9 11 15 17 16 15 13 18 20 24 21 24 25 32 25 25 27 33 40 45 50 52 51 60 61 63 63 57 60 58 44 52 62 65 64 68 76 86
19 20 19 17 12 14 13 14 15 18 16 16 15 19 22 23 22 20 19 25 21 28 32 35 44 49 51 50 54 60 57 61 62 58 58 55 46 56 59 55 60 68 82 82
17 19 19 18 16 13 15 18 14 15 16 17 17 23 22 19 18 17 21 28 21 28 35 39 46 46 46 47 50 53 52 58 69 67 63 49 45 50 49 54 60 67 81 82
16 19 18 17 17 15 13 16 19 16 20 20 15 15 15 18 18 34 40 30 28 35 43 43 44 44 44 44 47 51 58 68 83 77 59 52 46 42 48 49 53 56 68 76
16 18 18 17 18 16 15 15 17 17 16 17 16 16 20 23 27 31 32 35 36 41 46 46 45 43 41 44 47 52 56 83 80 62 57 45 41 40 42 45 46 47 45 54
16 17 20 20 17 18 17 17 17 18 20 20 22 19 25 24 23 23 37 38 40 42 44 40 41 39 43 47 47 49 48 44 53 48 48 42 40 39 38 40 42 45 48 50
17 17 19 19 18 16 17 17 19 18 19 21 21 27 33 29 25 23 33 37 39 42 44 41 38 40 42 43 43 43 47 52 49 44 42 41 39 39 37 40 44 48 50 52
22 19 19 16 17 17 20 18 18 18 21 21 18 23 37 33 30 25 28 38 35 38 44 42 40 41 45 46 44 42 43 51 54 53 49 41 39 39 37 38 44 46 50 53
23 24 22 20 18 20 17 17 17 16 19 20 22 43 65 43 31 29 30 36 39 43 46 47 42 44 48 46 47 47 44 46 54 56 52 49 40 39 38 38 42 47 50 53
32 32 30 30 21 21 19 19 18 16 17 18 21 40 47 47 37 33 34 36 41 45 47 50 47 46 47 47 45 50 47 50 54 59 62 59 54 46 40 39 40 44 53 54
37 39 42 26 21 21 20 16 15 19 18 21 35 65 52 40 39 40 40 37 37 44 50 52 51 46 48 49 48 51 55 57 59 61 60 63 61 61 53 42 42 44 55 57
33 34 36 40 39 28 31 32 26 31 43 36 47 54 55 41 40 44 45 40 44 42 40 43 48 49 50 53 52 55 59 62 62 60 59 62 64 65 60 46 44 45 51 53
32 32 33 33 45 46 40 41 44 39 42 41 47 43 44 41 43 46 43 43 41 40 39 39 42 44 45 48 55 57 62 66 64 61 64 62 67 65 59 51 48 49 49 53
28 31 34 33 35 41 54 48 40 38 59 47 48 44 40 39 46 59 50 43 40 38 36 36 37 43 49 56 60 62 66 66 68 62 66 64 65 61 59 59 60 56 53 55
29 29 31 30 33 37 67 60 46 38 61 65 46 44 42 42 45 50 42 39 40 40 39 39 41 45 53 64 72 66 70 74 73 64 67 65 61 60 63 64 62 60 58 61
47 44 34 31 36 36 55 55 54 61 58 57 58 53 49 50 47 43 41 39 39 40 42 46 47 46 55 70 92 93 77 84 80 74 72 66 66 65 67 68 72 68 65 67
44 47 64 57 60 56 55 57 56 59 58 58 58 57 54 54 48 44 42 39 36 39 43 46 49 52 65 73 60 65 89 87 88 79 72 69 69 67 68 70 73 75 75 77
71 69 48 60 61 54 52 50 46 48 54 56 56 55 55 53 49 45 43 39 36 36 38 44 49 53 64 67 76 80 77 75 77 75 74 71 69 70 70 72 75 81 86 88
83 80 75 69 61 54 54 52 50 49 49 49 49 50 50 51 50 50 48 47 47 47 45 42 43 47 58 66 66 68 70 68 68 68 70 71 73 75 76 75 79 82 85 84
77 73 66 72 63 66 63 58 55 55 52 51 51 53 54 54 54 56 56 56 55 54 53 52 51 49 46 48 60 66 67 70 70 71 75 79 84 75 84 82 78 85 86 85